Location: Utrecht
(52.0830°N, 5.1330°E)
Time: 08:22:33
(UTC+02:00)

Daily predictions for brighter satellites

Satellite Brightness Start Highest point End
(mag) Time Altitude Azimuth Time Altitude Azimuth Time Altitude Azimuth
SL-16 R/B 4.5 20:11:46 10° NNW 20:13:37 11° N 20:15:27 10° NNE
Cosmos 2298 Rocket 4.3 20:08:44 10° NNW 20:14:07 78° WSW 20:19:26 10° SSE
Cosmos 1937 Rocket 3.7 20:08:46 10° NNW 20:14:07 79° WSW 20:19:24 10° SSE
Cosmos 468 Rocket 4.1 20:12:33 10° S 20:17:40 59° ESE 20:22:52 10° NNE
Cosmos 841 Rocket 4.2 20:14:03 10° SSE 20:18:26 29° E 20:22:50 10° NE
Cosmos 1726 Rocket 3.6 20:16:00 10° S 20:20:16 56° E 20:24:31 10° NNE
Cosmos 1656 Rocket 3.7 20:15:30 10° NNW 20:21:13 83° ENE 20:26:50 10° SSE
COSMOS 2406 4.4 20:17:24 10° SE 20:21:26 20° E 20:25:30 10° NE
Resurs 1-3 4.3 20:18:03 10° SE 20:22:03 36° ENE 20:26:05 10° N
Cosmos 2369 Rocket 4.1 20:18:31 10° NW 20:23:29 32° WSW 20:28:23 10° SSW
BREEZE-M DEB (TANK) 1.8 20:21:08 10° W 20:23:59 45° S 20:25:38 12° ESE
FENGYUN 3A 4.1 20:19:51 10° S 20:25:11 67° WSW 20:30:34 10° NNW
USA 267 3.6 20:19:04 10° ENE 20:25:31 64° NNW 20:32:00 10° W
FengYun 1-2 T 4.3 20:20:10 10° SSE 20:25:47 85° ENE 20:31:23 10° NNW
Cosmos 389 Rocket 2.4 20:26:31 10° S 20:30:01 83° ESE 20:33:31 10° NNE
H-2A R/B 2.7 20:27:26 10° SSE 20:31:09 88° WSW 20:34:58 10° NNW
SL-16 R/B 4.3 20:27:29 10° W 20:32:12 26° NW 20:36:58 10° NNE
Cosmos 304 Rocket 4.3 20:32:17 10° SSE 20:36:36 35° ESE 20:40:57 10° NE
Cosmos 1763 Rocket 3.6 20:34:38 10° S 20:39:36 53° ESE 20:44:39 10° NNE
Resurs 01 Rocket 1.8 20:35:50 10° SE 20:40:09 54° ENE 20:44:29 10° N
GP-B 3.9 20:37:28 10° NNE 20:41:28 31° E 20:45:26 10° SE
Thor Agena Rocket 3.6 20:37:09 10° NNE 20:42:29 87° ESE 20:47:42 10° SSW
In-Cosmos 22 4.3 20:38:06 10° N 20:43:44 64° ENE 20:49:26 10° SSE
Cosmos 2084 4.1 20:40:22 10° S 20:43:52 29° SE 20:47:13 10° ENE
Cosmos 540 Rocket 4.4 20:39:56 10° SSE 20:44:02 25° E 20:48:11 10° NE
Cosmos 1707 3.6 20:40:58 10° NNW 20:44:49 54° W 20:48:39 10° S
Cosmos 1766 3.8 20:41:15 10° SSE 20:44:51 35° E 20:48:26 10° NNE
Cosmos 1943 3.8 20:46:36 10° SW 20:52:14 62° NW 20:57:57 10° NNE
Cosmos 2228 2.9 20:49:30 10° S 20:53:51 81° E 20:58:12 10° NNE
ALOS 4.1 20:49:37 10° SSW 20:53:52 34° W 20:58:09 10° NNW
Cosmos 1939 Rocket 3.4 20:53:28 17° SE 20:56:04 38° ENE 20:59:44 10° N
Meteor 2-13 Rocket 4.4 20:51:13 10° S 20:57:19 89° E 21:03:26 10° N
Cosmos 1812 Rocket 4.2 20:54:00 10° SSE 20:58:01 34° E 21:02:03 10° NNE
HJ-1C 4.4 20:54:56 10° S 20:58:11 49° W 21:01:30 10° NNW
Cosmos 1606 Rocket 4.4 20:55:00 10° SSW 20:59:15 53° WNW 21:03:31 10° N
Cosmos 2058 Rocket 3.1 20:55:36 10° SSW 20:59:58 83° WNW 21:04:23 10° N
Spot 2 Rocket 3.4 20:59:23 10° SSE 21:04:25 79° ENE 21:09:29 10° NNW
Cosmos 2278 4.3 21:03:06 10° NNW 21:08:28 41° NE 21:11:35 23° ESE
Cosmos 1674 3.2 21:06:10 10° N 21:09:44 38° ENE 21:10:59 29° ESE
Meteor 1-24 Rocket 4.1 21:04:14 10° NNW 21:10:15 74° W 21:16:06 10° S
Okean 3 Rocket 4.2 21:06:37 10° N 21:10:49 37° ENE 21:12:38 26° ESE
USA 186 1.0 21:10:27 29° S 21:11:33 85° WSW 21:13:57 10° NNW
YAOGAN 6 2.9 21:14:50 32° ESE 21:16:01 44° ENE 21:19:29 10° N
Cosmos 1814 Rocket 4.3 21:15:01 10° SW 21:20:09 68° WNW 21:25:18 10° NNE
Cosmos 1805 3.3 21:18:23 13° S 21:21:45 52° E 21:25:33 10° NNE
Cosmos 1544 2.9 21:18:12 10° S 21:21:48 74° E 21:25:26 10° NNE
Cosmos 1125 Rocket 3.7 21:16:38 10° NNW 21:21:56 75° WSW 21:26:36 14° SSE
Cosmos 2322 Rocket 4.2 21:20:13 10° NNW 21:23:35 16° NNE 21:26:46 10° ENE
MOS 1-B Rocket 4.0 21:19:39 10° SSE 21:25:46 79° WSW 21:31:27 10° NNW
CZ-2D R/B 4.4 21:23:01 10° S 21:26:40 43° W 21:30:20 10° NNW
Cosmos 2154 Rocket 4.0 21:20:49 10° S 21:26:55 61° E 21:33:05 10° NNE
SPOT 5 4.1 21:27:40 21° ENE 21:28:01 21° ENE 21:31:20 10° N
ATLAS 2AS CENTAUR R/B 3.2 21:23:59 10° NW 21:32:07 64° NE 21:36:36 28° ESE
Cosmos 2074 Rocket 4.2 21:25:58 10° SSW 21:32:09 74° WNW 21:38:24 10° N
ERS-1 Rocket 3.5 21:31:39 32° ESE 21:33:11 41° ENE 21:37:53 10° N
Cosmos 2360 Rocket 4.5 21:30:59 10° N 21:33:21 13° NNE 21:35:44 10° NE
Cosmos 2341 Rocket 4.1 21:29:47 11° SSE 21:35:33 52° E 21:41:34 10° NNE
Cosmos 1697 Rocket 3.4 21:31:16 10° NNW 21:36:38 40° NE 21:38:37 30° E
Envisat 3.4 21:31:36 10° S 21:36:39 65° WSW 21:41:44 10° NNW
Cosmos 1980 Rocket 3.3 21:31:52 10° NNW 21:36:46 29° NE 21:38:42 24° ENE
Cosmos 372 Rocket 4.3 21:31:46 10° NNW 21:36:58 64° WSW 21:40:57 17° S
Cosmos 1470 4.2 21:39:26 23° NE 21:39:26 23° NE 21:41:30 10° NNE
H-2A R/B 3.0 21:38:14 26° ENE 21:38:56 27° ENE 21:43:10 10° N
KORONAS-FOTON 3.8 21:35:58 10° N 21:39:45 59° ENE 21:40:09 55° ESE
Cosmos 1953 2.4 21:40:39 50° ESE 21:40:53 50° E 21:44:51 10° NNE
Helios 1A 3.0 21:40:48 46° SE 21:41:49 62° ENE 21:45:58 10° N
Cosmos 1356 4.2 21:41:16 10° NNW 21:44:41 50° W 21:46:22 26° SSW
Helios 1B rocket 4.1 21:42:21 10° NNE 21:44:01 20° NE 21:44:01 20° NE
Cosmos 1656 3.8 21:41:54 10° NNW 21:47:34 59° NE 21:49:27 40° ESE
Spot 1 4.0 21:51:08 55° ESE 21:51:43 63° ENE 21:55:50 10° N
Nadezhda 3 Rocket 4.3 21:47:19 10° NNW 21:53:39 69° W 21:59:45 10° S
Cosmos 2084 Rocket 4.0 21:50:55 10° NW 21:54:34 38° NNE 21:54:46 38° NE
Cosmos 841 Rocket 4.3 21:55:05 10° SW 22:00:05 51° WNW 22:05:08 10° NNE
SL-16 R/B 3.8 21:55:47 10° NNW 22:00:06 21° NNE 22:01:50 19° ENE
Meteor 1-21 Rocket 4.4 21:57:12 10° NNW 22:03:00 72° W 22:06:23 25° S
SL-14 R/B 3.8 21:59:12 10° N 22:02:22 45° NE 22:02:22 45° NE
COSMOS 2406 3.2 21:59:19 10° SSW 22:05:03 84° WNW 22:10:51 10° NNE
Cosmos 2285 Rocket 4.3 22:05:23 42° ESE 22:05:28 42° ESE 22:11:29 10° NE
Cosmos 2366 rocket 4.3 22:05:06 42° ESE 22:05:41 44° E 22:11:35 10° NNE
Cosmos 2218 Rocket 4.2 22:05:08 44° ESE 22:06:03 48° E 22:11:59 10° NNE
USA 267 3.6 22:04:44 29° ENE 22:08:12 61° N 22:14:38 10° WNW
NOAA 11 4.1 22:08:20 43° SSE 22:10:16 88° WSW 22:15:45 10° NNW
Cosmos 292 Rocket 4.2 22:11:27 47° ENE 22:11:27 47° ENE 22:15:11 10° NNE
Meteor 1-11 4.5 22:05:19 10° N 22:10:58 50° ENE 22:11:38 48° E
H-2A R/B 4.5 22:13:23 12° NE 22:13:23 12° NE 22:14:36 10° NNE
Cosmos 1076 Rocket 3.7 22:11:37 10° NNW 22:15:59 68° W 22:16:39 57° SSW
ARGOS 3.1 22:15:18 59° SE 22:16:12 71° ENE 22:21:38 10° NNW
Resurs 01 Rocket 4.0 22:13:34 10° SW 22:16:57 21° W 22:20:21 10° NW
Cosmos 2369 3.7 22:11:37 10° NNW 22:17:17 77° WSW 22:18:45 51° S
Iridium 4 Rocket 4.4 22:19:42 31° NE 22:19:42 31° NE 22:22:44 10° NNE
Meteor 2-21 4.3 22:20:08 42° S 22:22:21 76° E 22:28:29 10° NNE
MetOp-A 4.0 22:21:19 59° SSE 22:22:24 90° WSW 22:27:48 10° NNW
Cosmos 1758 4.1 22:21:52 34° SW 22:23:13 51° WNW 22:27:09 10° N
Cosmos 2084 4.0 22:19:23 10° WSW 22:23:13 49° NW 22:23:50 44° N
Cosmos 540 Rocket 4.0 22:20:16 10° SW 22:25:18 58° WNW 22:30:22 10° NNE
Cosmos 1727 Rocket 3.9 22:22:18 10° N 22:28:37 72° ENE 22:29:40 60° SE
Cosmos 1295 Rocket 4.4 22:24:37 22° SSW 22:28:41 81° W 22:34:49 10° N
Cosmos 1408 Rocket 3.7 22:28:20 10° NNW 22:32:12 68° NW 22:32:12 68° NW
Meteor 2-15 Rocket 4.4 22:27:30 10° NNW 22:33:36 79° W 22:35:16 50° S
SL-8 Rocket 3.8 22:33:13 49° S 22:35:01 86° E 22:41:13 10° N
Cosmos 2360 4.4 22:32:30 10° NNW 22:38:09 57° NE 22:38:18 57° ENE
Cosmos 2058 4.4 22:38:49 10° N 22:41:12 30° NNE 22:41:12 30° NNE
Terra 3.0 22:44:54 34° NNE 22:44:54 34° NNE 22:48:08 10° N
SPOT 1/Viking Rocket 3.6 22:44:52 70° NNE 22:44:52 70° NNE 22:49:37 10° NNW
Cosmos 1818 3.6 22:41:04 10° NW 22:46:24 72° NNE 22:46:24 72° NNE
GEOS 3 Rocket 3.6 22:44:58 10° NE 22:50:24 88° NW 22:55:49 10° SW
BREEZE-M DEB (TANK) 3.6 22:35:49 10° W 22:50:51 68° SSW 22:51:13 66° S
Cosmos 2278 4.4 22:47:19 10° NW 22:52:43 46° WSW 22:53:31 43° SW
Cosmos 1626 4.2 22:49:56 10° N 22:51:28 23° N 22:51:28 23° N
Cosmos 2082 Rocket 3.9 22:58:09 21° NE 22:58:09 21° NE 22:59:58 10° NE
Meteor 2-16 Rocket 4.3 22:59:42 82° SSW 23:00:00 87° W 23:06:09 10° N
Cosmos 2056 Rocket 4.5 22:56:00 10° NNW 23:00:21 39° NNE 23:00:21 39° NNE
Cosmos 864 Rocket 4.4 23:03:52 74° SW 23:04:28 83° W 23:10:52 10° N
SPOT 5 3.7 23:06:55 43° NW 23:06:55 43° NW 23:10:09 10° NNW
Cosmos 2322 Rocket 3.0 23:03:48 10° NNW 23:08:34 42° NNE 23:08:34 42° NNE
ERS-1 Rocket 4.2 23:11:40 34° WSW 23:12:02 35° W 23:16:39 10° NNW
H-2A R/B 2.7 23:18:52 49° WNW 23:18:52 49° WNW 23:23:05 10° NNW
Cosmos 2360 Rocket 3.6 23:14:32 10° NNW 23:19:07 28° NE 23:19:07 28° NE
Cosmos 1697 Rocket 3.4 23:15:18 10° NW 23:20:21 47° W 23:20:21 47° W
Cosmos 1980 Rocket 2.5 23:15:41 10° NNW 23:20:28 61° WNW 23:20:28 61° WNW
Helios 1B rocket 4.3 23:17:36 10° N 23:20:22 30° NW 23:20:22 30° NW
ATLAS 2AS CENTAUR R/B 3.4 23:15:25 10° NW 23:23:05 49° WSW 23:24:01 47° SW
NOSS 3-4 (A) 3.7 23:28:25 10° NW 23:35:04 79° NNE 23:35:04 79° NNE
NOSS 3-4 (C) 3.7 23:28:31 10° NW 23:35:10 79° NNE 23:35:10 79° NNE
Cosmos 2333 Rocket 4.3 23:33:23 10° NNW 23:37:02 17° NNE 23:38:23 16° NE
SL-16 R/B 3.0 23:39:32 10° NNW 23:43:41 48° N 23:43:41 48° N
H-2A R/B 4.2 23:50:31 24° N 23:50:31 24° N 23:52:21 10° N
USA 267 3.4 23:52:04 68° WNW 23:52:04 68° WNW 23:57:41 10° WNW
